Location: Borea
(45.6167°N, 23.0167°E)
Time: 10:41:01
(UTC+00:00)

Cosmos 1386 Rocket - Pass Details

Date: 03 February 2023
Orbit: 930 x 1005 km, 83.0° (Epoch: 30 March)

Event Time Altitude Azimuth Distance (km) Brightness Sun altitude
Rises 17:32:51 0° 352° (N) 3,595 7.5 -20.5°
Reaches altitude 10° 17:35:20 10° 353° (N) 2,646 6.8 -21.0°
Maximum altitude 17:41:23 83° 81° (E) 945 4.3 -22.0°
Drops below altitude 10° 17:47:26 10° 171° (S) 2,647 6.7 -23.1°
Sets 17:49:55 0° 172° (S) 3,596 7.4 -23.5°
